Flag for U.S.A. Weather past 2 weeks in Freehold, New Jersey, U.S.A.

Now
21 °F

Sunny.


Feels Like: 8 °F
Forecast: 15 / 29 °F
Wind: 15 mph from Northwest

Location: Belmar-Farmdale

Current Time: Jan 28, 2015 at 9:56:50 AM

Latest Report: Jan 28, 2015 at 9:35 AM


Visibility: 10 mi

Pressure: 30.04 "Hg

Humidity: 42%

Dew point: 1 °F

Location of FreeholdLocation

Historic Weather in Freehold — Graph

°F

Freehold temperature yesterday

Maximum temperature yesterday: 28 °F (at 3:35 PM)
Minimum temperature yesterday: 19 °F (at 10:55 PM)
Average temperature yesterday: 25 °F

Past Weeks' High & Low Weather Summary

 TemperatureHumidityPressure
High46 °F (Jan 18, 9:15 AM)87% (Jan 18, 8:55 AM)30.60 "Hg (Jan 18, 8:55 AM)
Low16 °F (Jan 17, 5:15 AM)26% (Jan 17, 2:35 PM)29.29 "Hg (Jan 24, 1:35 PM)
Average31 °F61%30.03 "Hg
* Reported Jan 13 8:15 AM — Jan 28 8:55 AM, Freehold, Weather by CustomWeather, © 2014

Note: Actual official high and low records may vary slightly from our data, if they occured in-between our weather recording intervals... More about our weather records

Advertising

Freehold weather history for previous 24 hours

 ConditionsComfort  
Time TempWeatherWind HumidityBarometerVisibility
8:55 AM
Jan 28
19 °FSunny.16 mph45%30.02 "Hg10 mi
8:35 AM19 °FSunny.15 mph42%30.02 "Hg10 mi
8:15 AM18 °FSunny.14 mph45%30.02 "Hg10 mi
7:35 AM16 °FSunny.12 mph45%30.00 "Hg10 mi
7:15 AM16 °FSunny.12 mph45%29.99 "Hg10 mi
6:55 AM16 °FClear.12 mph45%29.98 "Hg10 mi
6:35 AM16 °FClear.13 mph45%29.97 "Hg10 mi
6:15 AM16 °FClear.13 mph45%29.96 "Hg10 mi
5:55 AM16 °FClear.14 mph45%29.95 "Hg10 mi
5:35 AM16 °FClear.13 mph45%29.94 "Hg10 mi
5:15 AM16 °FClear.13 mph45%29.93 "Hg10 mi
4:55 AM16 °FClear.10 mph45%29.93 "Hg10 mi
4:35 AM16 °FClear.12 mph45%29.92 "Hg10 mi
4:15 AM16 °FClear.14 mph45%29.92 "Hg10 mi
3:55 AM16 °FClear.13 mph45%29.91 "Hg10 mi
3:35 AM16 °FClear.13 mph48%29.92 "Hg10 mi
3:15 AM16 °FClear.8 mph48%29.92 "Hg10 mi
2:55 AM16 °FClear.12 mph48%29.91 "Hg10 mi
2:35 AM16 °FClear.12 mph48%29.90 "Hg10 mi
2:15 AM16 °FClear.8 mph48%29.89 "Hg10 mi
1:55 AM16 °FClear.10 mph53%29.88 "Hg10 mi
1:35 AM16 °FClear.15 mph53%29.87 "Hg10 mi
1:15 AM18 °FClear.10 mph49%29.86 "Hg10 mi
12:55 AM18 °FClear.9 mph49%29.85 "Hg10 mi
12:35 AM18 °FClear.13 mph49%29.85 "Hg10 mi
12:15 AM19 °FClear.12 mph45%29.84 "Hg10 mi
11:55 PM
Jan 27
19 °FClear.10 mph49%29.84 "Hg10 mi
11:35 PM19 °FClear.10 mph49%29.84 "Hg10 mi
11:15 PM19 °FClear.12 mph49%29.83 "Hg10 mi
10:55 PM19 °FClear.15 mph53%29.82 "Hg10 mi
10:35 PM21 °FClear.14 mph54%29.81 "Hg10 mi
9:55 PM23 °FPassing clouds.16 mph50%29.80 "Hg10 mi
9:35 PM23 °FPassing clouds.16 mph50%29.79 "Hg10 mi
9:15 PM25 °FOvercast.16 mph46%29.78 "Hg10 mi
8:55 PM25 °FPassing clouds.16 mph50%29.77 "Hg10 mi
8:35 PM25 °FPassing clouds.20 mph50%29.77 "Hg10 mi
8:15 PM25 °FPassing clouds.16 mph50%29.76 "Hg10 mi
7:55 PM27 °FClear.16 mph50%29.75 "Hg10 mi
7:35 PM27 °FClear.16 mph54%29.74 "Hg10 mi
7:15 PM27 °FClear.12 mph54%29.74 "Hg10 mi
6:55 PM27 °FClear.13 mph59%29.73 "Hg10 mi
6:35 PM27 °FClear.9 mph59%29.72 "Hg10 mi
6:15 PM27 °FClear.14 mph59%29.71 "Hg10 mi
5:55 PM28 °FClear.13 mph55%29.70 "Hg10 mi
5:35 PM28 °FClear.16 mph59%29.69 "Hg10 mi
5:15 PM28 °FClear.14 mph59%29.68 "Hg10 mi
4:55 PM28 °FPassing clouds.13 mph59%29.67 "Hg10 mi
4:35 PM28 °FPartly sunny.10 mph59%29.66 "Hg10 mi
4:15 PM28 °FPartly sunny.10 mph59%29.65 "Hg10 mi
3:55 PM28 °FScattered clouds.12 mph59%29.65 "Hg10 mi
3:35 PM28 °FSunny.12 mph59%29.65 "Hg10 mi
3:15 PM27 °FSunny.13 mph64%29.65 "Hg10 mi
2:55 PM27 °FSunny.15 mph64%29.65 "Hg10 mi
2:35 PM27 °FSunny.14 mph64%29.64 "Hg10 mi
2:15 PM27 °FSunny.16 mph64%29.64 "Hg10 mi
1:55 PM27 °FPassing clouds.18 mph64%29.64 "Hg10 mi
1:35 PM27 °FBroken clouds.20 mph64%29.64 "Hg10 mi
1:15 PM27 °FOvercast.20 mph69%29.64 "Hg8 mi
12:55 PM27 °FMore clouds than sun.18 mph69%29.65 "Hg6 mi
12:35 PM27 °FMostly cloudy.18 mph69%29.65 "Hg5 mi
12:15 PM27 °FMostly cloudy.18 mph69%29.66 "Hg4 mi
11:55 AM27 °FMostly cloudy.18 mph69%29.66 "Hg4 mi
11:35 AM27 °FMostly cloudy.14 mph69%29.67 "Hg3 mi
11:15 AM25 °FOvercast.18 mph74%29.67 "Hg2 mi
10:55 AM25 °FOvercast.18 mph74%29.68 "Hg1 mi
10:35 AM25 °FOvercast.17 mph74%29.68 "Hg2 mi
10:15 AM25 °FOvercast.20 mph74%29.68 "Hg2 mi
9:55 AM25 °FMostly cloudy.17 mph69%29.68 "Hg2 mi
9:35 AM23 °FMostly cloudy.17 mph74%29.68 "Hg2 mi
9:15 AM23 °FMostly cloudy.21 mph74%29.68 "Hg2 mi
Weather by CustomWeather, © 2014

See weather overviewHow to use our weather pages